Tiempo cada hora Barnsley

Hoy, 15 Mayo, Sábado

Tiempo Temperatura Precipitaciones Viento Presión Humedad
00:00 +7°C° 0 mm 2 mps 743 mmHg 82%
01:00 +8°C° 0 mm 1 mps 743 mmHg 83%
02:00 +8°C° 0 mm 1 mps 742 mmHg 84%
03:00 +8°C° 0 mm 1 mps 742 mmHg 85%
04:00 +8°C° 0.1 mm 1 mps 741 mmHg 86%
05:00 +8°C° 0.1 mm 1 mps 741 mmHg 88%
06:00 +8°C° 0.1 mm 1 mps 741 mmHg 90%
07:00 +8°C° 0.1 mm 2 mps 740 mmHg 90%
08:00 +8°C° 0.1 mm 2 mps 740 mmHg 90%
09:00 +8°C° 0.1 mm 2 mps 740 mmHg 90%
10:00 +9°C° 0.2 mm 2 mps 740 mmHg 87%
11:00 +10°C° 0.2 mm 3 mps 739 mmHg 84%
12:00 +10°C° 0.2 mm 3 mps 739 mmHg 81%
13:00 +10°C° 0.4 mm 3 mps 739 mmHg 84%
14:00 +9°C° 0.4 mm 2 mps 739 mmHg 86%
15:00 +9°C° 0.4 mm 2 mps 738 mmHg 89%
16:00 +9°C° 0.1 mm 2 mps 738 mmHg 90%
17:00 +9°C° 0.1 mm 2 mps 738 mmHg 91%
18:00 +10°C° 0.1 mm 1 mps 738 mmHg 91%
19:00 +9°C° 0 mm 1 mps 738 mmHg 93%
20:00 +9°C° 0 mm 1 mps 738 mmHg 94%
21:00 +8°C° 0 mm 1 mps 738 mmHg 96%
22:00 +8°C° 0 mm 1 mps 738 mmHg 96%
23:00 +8°C° 0 mm 1 mps 738 mmHg 97%

Mañana, 16 Mayo, Domingo

Tiempo Temperatura Precipitaciones Viento Presión Humedad
00:00 +8°C° 0 mm 1 mps 738 mmHg 97%
01:00 +8°C° 0 mm 1 mps 737 mmHg 97%
02:00 +8°C° 0 mm 1 mps 737 mmHg 97%
03:00 +8°C° 0 mm 1 mps 737 mmHg 97%
04:00 +8°C° 0 mm 1 mps 737 mmHg 96%
05:00 +8°C° 0 mm 1 mps 737 mmHg 94%
06:00 +8°C° 0 mm 1 mps 737 mmHg 93%
07:00 +10°C° 0.1 mm 1 mps 737 mmHg 87%
08:00 +11°C° 0.1 mm 1 mps 737 mmHg 81%
09:00 +12°C° 0.1 mm 1 mps 737 mmHg 75%
10:00 +13°C° 0.7 mm 1 mps 737 mmHg 73%
11:00 +13°C° 0.7 mm 1 mps 737 mmHg 71%
12:00 +14°C° 0.7 mm 1 mps 737 mmHg 70%
13:00 +14°C° 1.1 mm 1 mps 737 mmHg 72%
14:00 +14°C° 1.1 mm 2 mps 737 mmHg 74%
15:00 +14°C° 1.1 mm 2 mps 737 mmHg 75%
16:00 +13°C° 0.9 mm 2 mps 737 mmHg 80%
17:00 +12°C° 0.9 mm 2 mps 737 mmHg 84%
18:00 +11°C° 0.9 mm 3 mps 737 mmHg 88%
19:00 +10°C° 0.2 mm 2 mps 737 mmHg 91%
20:00 +9°C° 0.2 mm 2 mps 738 mmHg 94%
21:00 +8°C° 0.2 mm 2 mps 738 mmHg 97%
22:00 +7°C° 0.1 mm 2 mps 738 mmHg 97%
23:00 +8°C° 0.1 mm 1 mps 739 mmHg 97%

Pasado mañana, 17 Mayo, Lunes

Tiempo Temperatura Precipitaciones Viento Presión Humedad
00:00 +8°C° 0.1 mm 1 mps 739 mmHg 97%
01:00 +7°C° 0 mm 1 mps 739 mmHg 97%
02:00 +7°C° 0 mm 1 mps 739 mmHg 97%
03:00 +7°C° 0 mm 1 mps 740 mmHg 97%
04:00 +7°C° 0 mm 1 mps 740 mmHg 95%
05:00 +8°C° 0 mm 1 mps 740 mmHg 93%
06:00 +7°C° 0 mm 0 mps 741 mmHg 92%
07:00 +9°C° 0 mm 1 mps 741 mmHg 89%
08:00 +10°C° 0 mm 1 mps 741 mmHg 86%
09:00 +11°C° 0 mm 1 mps 742 mmHg 83%
10:00 +11°C° 0.4 mm 1 mps 742 mmHg 81%
11:00 +12°C° 0.4 mm 2 mps 742 mmHg 78%
12:00 +13°C° 0.4 mm 2 mps 742 mmHg 76%
13:00 +12°C° 0.7 mm 3 mps 742 mmHg 75%
14:00 +12°C° 0.7 mm 4 mps 742 mmHg 75%
15:00 +12°C° 0.7 mm 5 mps 742 mmHg 74%
16:00 +12°C° 0.1 mm 5 mps 743 mmHg 72%
17:00 +10°C° 0.1 mm 5 mps 743 mmHg 71%
18:00 +10°C° 0.1 mm 5 mps 743 mmHg 69%
19:00 +10°C° 0 mm 4 mps 744 mmHg 73%
20:00 +8°C° 0 mm 4 mps 744 mmHg 77%
21:00 +7°C° 0 mm 3 mps 744 mmHg 82%
22:00 +7°C° 0 mm 3 mps 745 mmHg 82%
23:00 +7°C° 0 mm 3 mps 745 mmHg 83%

18 Mayo, Martes

Tiempo Temperatura Precipitaciones Viento Presión Humedad
00:00 +5°C° 0 mm 3 mps 745 mmHg 83%
01:00 +6°C° 0 mm 2 mps 745 mmHg 86%
02:00 +6°C° 0 mm 2 mps 745 mmHg 88%
03:00 +6°C° 0 mm 2 mps 746 mmHg 91%
04:00 +5°C° 0 mm 3 mps 746 mmHg 89%
05:00 +7°C° 0 mm 3 mps 746 mmHg 86%
06:00 +8°C° 0 mm 3 mps 747 mmHg 84%
07:00 +8°C° 0 mm 4 mps 747 mmHg 76%
08:00 +9°C° 0 mm 5 mps 747 mmHg 69%
09:00 +10°C° 0 mm 5 mps 747 mmHg 62%
10:00 +12°C° 0.1 mm 5 mps 747 mmHg 60%
11:00 +12°C° 0.1 mm 5 mps 748 mmHg 58%
12:00 +12°C° 0.1 mm 5 mps 748 mmHg 56%
13:00 +11°C° 0.1 mm 6 mps 748 mmHg 55%
14:00 +13°C° 0.1 mm 6 mps 748 mmHg 55%
15:00 +13°C° 0.1 mm 6 mps 748 mmHg 55%
16:00 +12°C° 0.1 mm 5 mps 748 mmHg 59%
17:00 +12°C° 0.1 mm 5 mps 748 mmHg 64%
18:00 +11°C° 0.1 mm 4 mps 748 mmHg 69%
19:00 +10°C° 0 mm 4 mps 749 mmHg 74%
20:00 +9°C° 0 mm 3 mps 749 mmHg 79%
21:00 +7°C° 0 mm 3 mps 749 mmHg 84%
22:00 +7°C° 0 mm 3 mps 749 mmHg 86%
23:00 +7°C° 0 mm 3 mps 749 mmHg 88%

19 Mayo, Miércoles

Tiempo Temperatura Precipitaciones Viento Presión Humedad
00:00 +5°C° 0 mm 3 mps 749 mmHg 89%
01:00 +5°C° 0 mm 3 mps 749 mmHg 89%
02:00 +5°C° 0 mm 3 mps 749 mmHg 88%
03:00 +6°C° 0 mm 2 mps 749 mmHg 88%
04:00 +7°C° 0 mm 2 mps 749 mmHg 87%
05:00 +7°C° 0 mm 2 mps 749 mmHg 87%
06:00 +8°C° 0 mm 2 mps 749 mmHg 86%
07:00 +9°C° 0 mm 3 mps 750 mmHg 82%
08:00 +10°C° 0 mm 3 mps 750 mmHg 77%
09:00 +11°C° 0 mm 4 mps 750 mmHg 73%
10:00 +12°C° 0.1 mm 4 mps 750 mmHg 72%
11:00 +12°C° 0.1 mm 5 mps 751 mmHg 71%
12:00 +12°C° 0.1 mm 5 mps 751 mmHg 71%
13:00 +12°C° 0 mm 5 mps 751 mmHg 68%
14:00 +13°C° 0 mm 5 mps 751 mmHg 66%
15:00 +13°C° 0 mm 5 mps 751 mmHg 64%
16:00 +13°C° 0 mm 4 mps 751 mmHg 65%
17:00 +13°C° 0 mm 4 mps 751 mmHg 65%
18:00 +12°C° 0 mm 3 mps 751 mmHg 66%
19:00 +11°C° 0 mm 3 mps 751 mmHg 72%
20:00 +9°C° 0 mm 2 mps 751 mmHg 77%
21:00 +9°C° 0 mm 1 mps 751 mmHg 83%
22:00 +9°C° 0 mm 1 mps 751 mmHg 83%
23:00 +9°C° 0 mm 1 mps 750 mmHg 83%

20 Mayo, Jueves

Tiempo Temperatura Precipitaciones Viento Presión Humedad
00:00 +9°C° 0 mm 1 mps 750 mmHg 83%
01:00 +9°C° 0 mm 1 mps 749 mmHg 83%
02:00 +8°C° 0 mm 2 mps 749 mmHg 84%
03:00 +8°C° 0 mm 2 mps 748 mmHg 84%
04:00 +8°C° 0.1 mm 2 mps 747 mmHg 85%
05:00 +8°C° 0.1 mm 2 mps 747 mmHg 85%
06:00 +8°C° 0.1 mm 3 mps 746 mmHg 85%
07:00 +8°C° 0.2 mm 3 mps 745 mmHg 88%
08:00 +6°C° 0.2 mm 4 mps 744 mmHg 91%
09:00 +6°C° 0.2 mm 5 mps 743 mmHg 93%
10:00 +6°C° 0.3 mm 5 mps 742 mmHg 94%
11:00 +6°C° 0.3 mm 5 mps 741 mmHg 96%
12:00 +7°C° 0.3 mm 5 mps 740 mmHg 97%
13:00 +7°C° 0.1 mm 5 mps 740 mmHg 96%
14:00 +8°C° 0.1 mm 5 mps 739 mmHg 95%
15:00 +8°C° 0.1 mm 5 mps 738 mmHg 95%
16:00 +8°C° 0.4 mm 5 mps 738 mmHg 95%
17:00 +8°C° 0.4 mm 5 mps 738 mmHg 96%
18:00 +8°C° 0.4 mm 4 mps 738 mmHg 97%
19:00 +7°C° 0.3 mm 5 mps 739 mmHg 97%
20:00 +7°C° 0.3 mm 5 mps 739 mmHg 97%
21:00 +7°C° 0.3 mm 5 mps 740 mmHg 97%
22:00 +7°C° 0.1 mm 4 mps 741 mmHg 97%
23:00 +7°C° 0.1 mm 4 mps 742 mmHg 97%
Mostrar más

Necesitamos Su Consentimiento

Meteoprog y nuestros Proveedores de Servicios pueden almacenar y acceder a sus datos personales como cookies, identificadores de dispositivo u otras tecnologías similares de su dispositivo y procesar dichos datos para personalizar contenido y anuncios, además de ofrecer funciones de redes sociales y analizar el tráfico.

  • Almacenar y/o acceder a información en su dispositivo

    Se puede almacenar o acceder a cookies, identificadores de dispositivo u otra información de su dispositivo para los fines anteriormente indicados.

  • Anuncios y contenido personalizados, medición de anuncios y contenido, percepciones del público, y desarrollo de productos

    Los anuncios y el contenido pueden personalizarse en base a su perfil. Se pueden añadir más datos para personalizar mejor los anuncios y contenidos. Se puede medir el rendimiento de los anuncios y contenidos. Se puede obtener la percepción sobre el público que ha visto los anuncios y contenidos. Dichos datos pueden usarse para desarrollar o mejorar la experiencia del usuario, sistemas y software.

Al hacer clic en ‘Estoy De Acuerdo’ usted permitirá el uso de las cookies, identificadores de dispositivo, balizas web u otras tecnologías similares indicadas. Su configuración puede cambiarse desde el navegador de su dispositivo.

Para ciertos fines, los intereses legítimos pueden ser considerados por encima del consentimiento. Puede leer más sobre ello en nuestra Política de Privacidad y Cookies.